Flag for Germany Weather past 2 weeks in Straubing, Bavaria, Germany

Now
91 °F

Sunny.


Feels Like: 89 °F
Forecast: 62 / 85 °F
Wind: 2 mph from Northwest

Location: Straubing

Current Time: Aug 4, 2015 at 6:02:46 PM

Latest Report: Aug 4, 2015 at 5:00 PM


Visibility: 28 mi

Pressure: 29.85 "Hg

Humidity: 29%

Dew point: 54 °F

Location of StraubingLocation

Historic Weather in Straubing — Graph

°F

Straubing temperature yesterday

Maximum temperature yesterday: 80 °F (at 6:00 PM)
Minimum temperature yesterday: 56 °F (at 6:00 AM)
Average temperature yesterday: 69 °F

Past Weeks' High & Low Weather Summary

 TemperatureHumidityPressure
High94 °F (Jul 22, 6:00 PM)100% (Aug 3, 3:00 AM)30.13 "Hg (Aug 3, 3:00 AM)
Low47 °F (Jul 30, 3:00 AM)30% (Jul 22, 4:00 PM)29.67 "Hg (Jul 27, 3:00 PM)
Average69 °F64%29.92 "Hg
* Reported Jul 20 4:00 PM — Aug 4 4:00 PM, Straubing, Weather by CustomWeather, © 2015

Note: Actual official high and low records may vary slightly from our data, if they occured in-between our weather recording intervals... More about our weather records

Advertising

Straubing weather history for previous 24 hours

 ConditionsComfort  
Time TempWeatherWind HumidityBarometerVisibility
4:00 PM
Tue, Aug 4
88 °FSunny.2 mph30%29.86 "Hg43 mi
3:00 PM87 °FSunny.1 mph33%29.87 "Hg19 mi
2:00 PM84 °FSunny.1 mph39%29.88 "Hg37 mi
1:00 PM83 °FSunny.3 mph46%29.90 "Hg14 mi
12:00 PM81 °FPassing clouds.3 mph56%29.91 "Hg15 mi
10:00 AM73 °FSunny.5 mph70%29.95 "Hg7 mi
9:00 AM68 °FSunny.3 mph74%29.96 "Hg9 mi
8:00 AM64 °FSunny.1 mph80%29.99 "Hg9 mi
7:00 AM57 °FSunny.1 mph90%30.00 "Hg8 mi
6:00 AM53 °FSunny.2 mph94%30.01 "Hg6 mi
4:00 AM56 °FClear.1 mph95%30.02 "Hg6 mi
3:00 AM56 °FClear.2 mph94%30.02 "Hg7 mi
2:00 AM59 °FClear.2 mph89%30.03 "Hg10 mi
1:00 AM58 °FClear.2 mph90%30.04 "Hg9 mi
10:00 PM
Mon, Aug 3
70 °FClear.2 mph65%30.02 "Hg22 mi
9:00 PM71 °FClear.2 mph62%30.02 "Hg28 mi
8:00 PM78 °FSunny.1 mph46%30.00 "Hg28 mi
7:00 PM79 °FSunny.1 mph44%30.00 "Hg25 mi
6:00 PM80 °FSunny.1 mph45%30.01 "Hg28 mi
Weather by CustomWeather, © 2015

See weather overviewHow to use our weather pages